Location: IoMAS Observatory
(54.1780°N, 4.6265°W)
Time: 19:04:18
(UTC+01:00)

ISS - Pass Details

Date: 30 November 2021
Orbit: 413 x 422 km, 51.6° (Epoch: 23 January)

Event Time Altitude Azimuth Distance (km) Brightness Sun altitude
Rises 19:21:00 0° 271° (W) 2,384 1.6 -19.5°
Reaches altitude 10° 19:23:08 10° 266° (W) 1,516 0.3 -19.8°
Maximum altitude 19:26:27 49° 191° (S) 552 -3.1 -20.2°
Enters shadow 19:26:43 48° 172° (S) 565 -3.2 -20.3°
